EW1336 Weather Reports


Display with metric or nautical units.
time (UTC)temp
F
wind
direction
speed
MPH
gust
MPH
rain 1hr
in
rain 24hr
in
rain mn
in
humidity
%
barometer
mb
20260507003014 62 200 0.0 2.0 0.00 0.00 0.00 39 1015.1
20260507001513 63 269 0.0 1.0 0.00 0.00 0.00 37 1015.2
20260507000014 64 275 0.0 2.0 0.00 0.00 0.00 36 1015.3
20260506234510 65 210 0.0 1.0 0.00 0.00 0.00 35 1015.3
20260506233009 65 277 0.0 2.0 0.00 0.00 0.00 37 1015.3
20260506231517 65 336 0.0 2.0 0.00 0.00 0.00 35 1015.4
20260506230005 64 229 0.0 2.0 0.00 0.00 0.00 37 1015.6
20260506224504 64 221 0.0 3.0 0.00 0.00 0.00 37 1015.9
20260506223004 64 283 0.0 3.0 0.00 0.00 0.00 38 1015.9
20260506221501 64 278 0.0 3.0 0.00 0.00 0.00 37 1016.2
20260506220100 64 250 0.0 3.0 0.00 0.00 0.00 34 1016.4
20260506214559 64 274 0.0 2.0 0.00 0.00 0.00 38 1016.6
20260506213127 63 253 0.0 2.0 0.00 0.00 0.00 40 1016.6
20260506211608 63 274 0.0 4.0 0.00 0.00 0.00 44 1016.7
20260506210100 64 226 0.0 3.0 0.00 0.00 0.00 41 1016.9
20260506204556 63 260 0.0 2.0 0.00 0.05 0.00 47 1016.9
20260506203049 62 219 0.0 2.0 0.00 0.05 0.00 47 1017.0
20260506201557 62 219 0.0 3.0 0.00 0.05 0.00 55 1017.1
20260506200043 61 270 0.0 1.0 0.00 0.05 0.00 54 1017.4
20260506194547 58 235 0.0 1.0 0.00 0.19 0.00 60 1017.5
20260506193040 59 161 0.0 1.0 0.00 0.19 0.00 59 1017.5
20260506191544 59 278 0.0 2.0 0.00 0.19 0.00 58 1017.5
20260506190136 58 20 0.0 2.0 0.00 0.19 0.00 61 1017.6
20260506184530 57 88 0.0 1.0 0.00 0.32 0.00 65 1017.7
20260506183036 55 235 0.0 1.0 0.00 0.32 0.00 66 1017.7
20260506181525 54 201 0.0 1.0 0.00 0.32 0.00 69 1017.9
20260506180027 54 267 0.0 1.0 0.00 0.41 0.00 68 1018.0
20260506174522 54 276 0.0 2.0 0.00 0.41 0.00 68 1017.9
20260506173020 53 302 0.0 1.0 0.00 0.41 0.00 69 1017.9
20260506171525 51 248 0.0 1.0 0.00 0.41 0.00 78 1017.9
20260506170011 50 224 0.0 1.0 0.00 0.49 0.00 82 1018.1
20260506164509 49 255 0.0 1.0 0.00 0.49 0.00 84 1018.1
20260506163008 48 224 0.0 1.0 0.00 0.49 0.00 84 1018.1
20260506161503 47 215 0.0 0.0 0.00 0.49 0.00 83 1018.1
20260506160111 46 243 0.0 1.0 0.00 0.49 0.00 85 1018.2
20260506154604 45 224 0.0 0.0 0.00 0.54 0.00 84 1018.2
20260506153053 44 193 0.0 0.0 0.00 0.54 0.00 86 1018.2
20260506151549 42 193 0.0 0.0 0.00 0.54 0.00 87 1018.3
20260506150046 41 193 0.0 0.0 0.00 0.54 0.00 88 1018.2
20260506144559 40 193 0.0 0.0 0.00 0.56 0.00 89 1018.1
20260506143044 38 193 0.0 1.0 0.00 0.56 0.00 87 1017.9
20260506141542 38 193 0.0 1.0 0.00 0.56 0.00 85 1017.8
20260506140044 37 198 0.0 0.0 0.00 0.57 0.00 86 1017.5
20260506134538 36 199 0.0 0.0 0.00 0.57 0.00 86 1017.4
20260506133037 36 197 0.0 0.0 0.00 0.57 0.00 86 1017.1
20260506131535 37 197 0.0 0.0 0.00 0.57 0.00 85 1016.9
20260506130031 37 208 0.0 0.0 0.00 0.60 0.00 84 1016.7
20260506124531 37 194 0.0 0.0 0.00 0.60 0.00 83 1016.6
20260506123031 38 195 0.0 0.0 0.00 0.60 0.00 82 1016.5
20260506121526 37 190 0.0 0.0 0.00 0.60 0.00 84 1016.3
20260506120037 38 191 0.0 0.0 0.00 0.62 0.00 82 1016.2
20260506114523 37 207 0.0 1.0 0.00 0.62 0.00 83 1016.2
20260506113028 38 204 0.0 0.0 0.00 0.62 0.00 83 1016.1
20260506111519 38 183 0.0 1.0 0.00 0.62 0.00 83 1016.0
20260506110018 38 148 0.0 1.0 0.00 0.63 0.00 82 1016.0
20260506104516 39 215 0.0 1.0 0.00 0.63 0.00 82 1015.8
20260506103014 39 200 0.0 0.0 0.00 0.63 0.00 83 1015.6
20260506101512 40 213 0.0 0.0 0.00 0.63 0.00 83 1015.4
20260506100010 40 214 0.0 0.0 0.00 0.64 0.00 83 1015.4
20260506094507 41 224 0.0 0.0 0.00 0.64 0.00 85 1015.1
20260506093006 41 224 0.0 0.0 0.00 0.64 0.00 84 1015.1
20260506091513 41 224 0.0 0.0 0.00 0.64 0.00 82 1015.1
20260506090006 41 224 0.0 1.0 0.00 0.67 0.00 83 1015.0
20260506084503 40 224 0.0 0.0 0.00 0.67 0.00 84 1015.0
20260506083002 40 224 0.0 0.0 0.00 0.67 0.00 85 1014.9
20260506081501 40 257 0.0 0.0 0.00 0.67 0.00 89 1014.8
20260506073101 41 276 0.0 0.0 0.00 0.71 0.00 86 1015.0
20260506071557 40 274 0.0 1.0 0.00 0.71 0.00 85 1014.8
20260506061558 41 219 0.0 0.0 0.00 0.73 0.71 90 1014.4
20260506044550 43 226 0.0 0.0 0.00 0.77 0.71 88 1014.2
20260506043043 43 226 0.0 0.0 0.00 0.77 0.71 89 1014.0
20260506041541 42 226 0.0 0.0 0.00 0.77 0.71 89 1013.8
20260506040043 43 226 0.0 0.0 0.00 0.80 0.71 88 1013.5
20260506034542 43 226 0.0 0.0 0.00 0.80 0.71 88 1013.1
20260506033043 44 226 0.0 0.0 0.00 0.80 0.71 88 1012.9
20260506031547 44 226 0.0 0.0 0.00 0.80 0.71 89 1012.9
20260506030041 44 227 0.0 0.0 0.00 0.88 0.71 89 1012.7
20260506024544 44 227 0.0 0.0 0.00 0.88 0.71 89 1012.5
20260506023036 44 226 0.0 0.0 0.00 0.88 0.71 89 1012.6
20260506021542 45 227 0.0 0.0 0.00 0.88 0.71 88 1012.5
20260506020034 45 226 0.0 0.0 0.00 0.89 0.71 88 1012.5
20260506014533 46 226 0.0 0.0 0.00 0.89 0.71 87 1012.4
20260506013033 47 226 0.0 0.0 0.00 0.89 0.71 85 1012.1
20260506011536 48 226 0.0 0.0 0.00 0.89 0.71 84 1012.0
20260506010033 49 227 0.0 0.0 0.00 0.89 0.71 83 1011.8
20260506004532 49 281 0.0 1.0 0.00 0.89 0.71 79 1011.9